�������l�o���
Date,Time,MP-1(��Sv/h),MP-2(��Sv/h),MP-3(��Sv/h),MP-4(��Sv/h),MP-5(��Sv/h),MP-6(��Sv/h),MP-7(��Sv/h),MP-8(��Sv/h),����,����(m/s),���J
2019/05/01,00:00,0.731,1.057,0.737,1.347,0.980,0.433,0.754,0.718,��,6.8,��
2019/05/01,00:10,0.732,1.058,0.739,1.349,0.982,0.434,0.754,0.719,��,8.2,��
2019/05/01,00:20,0.731,1.057,0.739,1.349,0.980,0.432,0.754,0.718,��,7.2,��
2019/05/01,00:30,0.731,1.056,0.738,1.348,0.981,0.432,0.753,0.719,��,7.7,��
2019/05/01,00:40,0.733,1.059,0.739,1.349,0.982,0.434,0.755,0.718,��,6.9,��
2019/05/01,00:50,0.733,1.059,0.739,1.348,0.982,0.434,0.756,0.718,��,7.0,��
2019/05/01,01:00,0.732,1.059,0.739,1.350,0.983,0.433,0.757,0.719,��,6.7,��
2019/05/01,01:10,0.733,1.056,0.739,1.349,0.982,0.433,0.755,0.718,��,5.9,��
2019/05/01,01:20,0.733,1.057,0.739,1.350,0.982,0.434,0.756,0.718,��,4.8,��
2019/05/01,01:30,0.734,1.059,0.739,1.348,0.984,0.433,0.755,0.719,��,5.0,��
2019/05/01,01:40,0.735,1.058,0.738,1.351,0.983,0.435,0.757,0.718,��,5.5,��
2019/05/01,01:50,0.732,1.056,0.737,1.351,0.985,0.433,0.756,0.717,��,5.8,��
2019/05/01,02:00,0.733,1.059,0.736,1.348,0.983,0.434,0.755,0.719,��,8.1,��
2019/05/01,02:10,0.732,1.059,0.739,1.352,0.984,0.436,0.754,0.719,��,9.0,��
2019/05/01,02:20,0.733,1.058,0.739,1.347,0.984,0.434,0.758,0.720,��,8.9,��
2019/05/01,02:30,0.733,1.058,0.739,1.349,0.986,0.433,0.758,0.719,��,8.5,��
2019/05/01,02:40,0.734,1.060,0.739,1.349,0.984,0.435,0.757,0.718,��,8.1,��
2019/05/01,02:50,0.733,1.060,0.739,1.349,0.984,0.434,0.756,0.719,��,7.4,��
2019/05/01,03:00,0.733,1.059,0.738,1.352,0.985,0.433,0.757,0.718,��,7.0,��
2019/05/01,03:10,0.735,1.060,0.739,1.350,0.985,0.434,0.758,0.720,��쐼,5.3,��
2019/05/01,03:20,0.735,1.059,0.737,1.349,0.985,0.433,0.756,0.720,��쐼,4.6,��
2019/05/01,03:30,0.732,1.059,0.739,1.350,0.985,0.434,0.755,0.719,��,5.2,��
2019/05/01,03:40,0.734,1.060,0.739,1.348,0.983,0.434,0.757,0.720,��,4.2,��
2019/05/01,03:50,0.734,1.060,0.740,1.347,0.988,0.435,0.758,0.718,��,4.5,��
2019/05/01,04:00,0.734,1.059,0.739,1.353,0.984,0.435,0.759,0.718,��,5.0,��
2019/05/01,04:10,0.735,1.059,0.740,1.350,0.984,0.434,0.757,0.719,��,4.6,�L
2019/05/01,04:20,0.735,1.058,0.740,1.352,0.984,0.433,0.757,0.718,��,5.2,�L
2019/05/01,04:30,0.732,1.060,0.738,1.350,0.984,0.435,0.757,0.719,��,4.6,�L
2019/05/01,04:40,0.734,1.060,0.739,1.353,0.985,0.433,0.758,0.719,��,4.0,�L
2019/05/01,04:50,0.733,1.058,0.738,1.350,0.988,0.433,0.756,0.718,��,3.8,�L
2019/05/01,05:00,0.734,1.060,0.739,1.351,0.986,0.432,0.757,0.718,��,2.9,�L
2019/05/01,05:10,0.733,1.058,0.740,1.352,0.985,0.432,0.756,0.718,��,2.6,�L
2019/05/01,05:20,0.733,1.059,0.739,1.350,0.985,0.434,0.758,0.720,��쓌,2.0,�L
2019/05/01,05:30,0.733,1.057,0.740,1.351,0.982,0.433,0.757,0.720,��,1.5,�L
2019/05/01,05:40,0.733,1.056,0.738,1.351,0.984,0.435,0.756,0.718,��쓌,1.2,�L
2019/05/01,05:50,0.734,1.056,0.740,1.349,0.981,0.433,0.756,0.715,��쐼,0.9,�L
2019/05/01,06:00,0.732,1.053,0.737,1.348,0.982,0.432,0.755,0.719,-,CALM,�L
2019/05/01,06:10,0.732,1.050,0.738,1.346,0.981,0.432,0.753,0.717,-,CALM,�L
2019/05/01,06:20,0.730,1.050,0.736,1.346,0.979,0.432,0.753,0.715,���쓌,0.9,�L
2019/05/01,06:30,0.730,1.048,0.735,1.345,0.975,0.431,0.753,0.716,���k��,1.2,�L
2019/05/01,06:40,0.729,1.047,0.737,1.342,0.976,0.433,0.752,0.715,�k��,1.2,�L
2019/05/01,06:50,0.728,1.048,0.735,1.342,0.976,0.433,0.753,0.715,�k,1.7,�L
2019/05/01,07:00,0.729,1.047,0.736,1.340,0.975,0.431,0.752,0.716,�k,2.0,�L
2019/05/01,07:10,0.728,1.048,0.733,1.340,0.973,0.432,0.752,0.714,�k�k��,2.6,�L
2019/05/01,07:20,0.727,1.045,0.732,1.340,0.975,0.432,0.753,0.714,�k�k��,3.7,�L
2019/05/01,07:30,0.729,1.047,0.735,1.338,0.974,0.431,0.753,0.714,�k�k��,4.5,�L
2019/05/01,07:40,0.726,1.044,0.734,1.335,0.974,0.432,0.752,0.716,�k�k��,4.3,�L
2019/05/01,07:50,0.726,1.045,0.733,1.336,0.971,0.433,0.751,0.714,�k,3.6,�L
2019/05/01,08:00,0.728,1.044,0.732,1.338,0.973,0.431,0.751,0.713,�k,4.8,�L
2019/05/01,08:10,0.727,1.042,0.733,1.334,0.969,0.431,0.753,0.713,�k,3.9,�L
2019/05/01,08:20,0.725,1.040,0.734,1.336,0.971,0.431,0.750,0.714,�k�k��,4.1,�L
2019/05/01,08:30,0.725,1.040,0.733,1.334,0.971,0.429,0.750,0.713,�k�k��,4.3,�L
2019/05/01,08:40,0.727,1.043,0.733,1.333,0.975,0.430,0.751,0.713,�k�k��,4.6,�L
2019/05/01,08:50,0.727,1.042,0.734,1.334,0.972,0.432,0.752,0.714,�k�k��,4.8,�L
2019/05/01,09:00,0.726,1.042,0.734,1.332,0.971,0.431,0.751,0.713,�k,4.1,��
2019/05/01,09:10,0.726,1.041,0.732,1.336,0.971,0.430,0.751,0.713,�k,5.0,��
2019/05/01,09:20,0.726,1.044,0.733,1.336,0.975,0.431,0.753,0.713,�k�k��,6.1,�L
2019/05/01,09:30,0.729,1.044,0.735,1.334,0.973,0.431,0.754,0.715,�k,5.8,�L
2019/05/01,09:40,0.727,1.043,0.735,1.338,0.973,0.431,0.752,0.716,�k�k��,6.4,��
2019/05/01,09:50,0.726,1.044,0.736,1.337,0.974,0.430,0.754,0.714,�k�k��,5.3,�L
2019/05/01,10:00,0.729,1.046,0.733,1.337,0.975,0.430,0.752,0.713,�k�k��,5.8,�L
2019/05/01,10:10,0.728,1.042,0.735,1.336,0.974,0.429,0.754,0.713,�k�k��,6.5,�L
2019/05/01,10:20,0.729,1.045,0.734,1.333,0.974,0.430,0.754,0.713,�k�k��,6.8,�L
2019/05/01,10:30,0.730,1.044,0.732,1.338,0.975,0.427,0.756,0.715,�k�k��,7.5,�L
2019/05/01,10:40,0.730,1.045,0.732,1.339,0.973,0.427,0.754,0.715,�k�k��,6.7,�L
2019/05/01,10:50,0.730,1.045,0.734,1.338,0.976,0.429,0.755,0.716,�k�k��,7.0,�L
2019/05/01,11:00,0.730,1.046,0.732,1.339,0.974,0.430,0.755,0.715,�k,6.7,��
2019/05/01,11:10,0.730,1.047,0.735,1.342,0.977,0.429,0.754,0.715,�k�k��,5.7,��
2019/05/01,11:20,0.730,1.049,0.735,1.341,0.976,0.429,0.755,0.715,�k,6.0,��
2019/05/01,11:30,0.733,1.047,0.735,1.343,0.978,0.428,0.759,0.717,�k,5.8,��
2019/05/01,11:40,0.735,1.049,0.735,1.341,0.979,0.430,0.757,0.714,�k,5.8,��
2019/05/01,11:50,0.733,1.049,0.737,1.341,0.979,0.430,0.756,0.715,�k,5.8,��
2019/05/01,12:00,0.731,1.054,0.737,1.344,0.980,0.429,0.757,0.715,�k,6.0,��
2019/05/01,12:10,0.733,1.051,0.738,1.340,0.980,0.429,0.758,0.717,�k,6.5,��
2019/05/01,12:20,0.733,1.054,0.738,1.343,0.981,0.429,0.757,0.718,�k,7.9,��
2019/05/01,12:30,0.734,1.054,0.737,1.344,0.980,0.431,0.758,0.717,�k,7.6,��
2019/05/01,12:40,0.732,1.052,0.739,1.341,0.982,0.428,0.759,0.718,�k,8.6,��
2019/05/01,12:50,0.733,1.054,0.739,1.340,0.982,0.429,0.756,0.717,�k,10.2,�L
2019/05/01,13:00,0.733,1.052,0.736,1.343,0.980,0.429,0.758,0.718,�k,8.2,�L
2019/05/01,13:10,0.736,1.054,0.738,1.344,0.983,0.429,0.758,0.717,�k,7.7,��
2019/05/01,13:20,0.733,1.054,0.738,1.346,0.986,0.429,0.756,0.717,�k,8.9,��
2019/05/01,13:30,0.734,1.056,0.735,1.347,0.986,0.430,0.757,0.718,�k,9.0,��
2019/05/01,13:40,0.734,1.057,0.736,1.345,0.983,0.431,0.758,0.718,�k,8.6,��
2019/05/01,13:50,0.734,1.058,0.740,1.345,0.982,0.430,0.760,0.718,�k,6.4,��
2019/05/01,14:00,0.736,1.054,0.739,1.350,0.983,0.429,0.758,0.718,�k,5.3,��
2019/05/01,14:10,0.734,1.056,0.740,1.348,0.985,0.429,0.758,0.718,�k,7.2,��
2019/05/01,14:20,0.735,1.055,0.737,1.347,0.984,0.431,0.759,0.719,�k,5.6,��
2019/05/01,14:30,0.737,1.056,0.737,1.348,0.981,0.430,0.760,0.718,�k,7.0,��
2019/05/01,14:40,0.736,1.057,0.736,1.348,0.984,0.429,0.758,0.718,�k,6.6,��
2019/05/01,14:50,0.736,1.055,0.737,1.348,0.985,0.430,0.757,0.718,�k,6.9,��
2019/05/01,15:00,0.736,1.058,0.737,1.349,0.985,0.430,0.757,0.718,�k,6.2,��
2019/05/01,15:10,0.735,1.057,0.739,1.347,0.984,0.430,0.758,0.720,�k,4.9,��
2019/05/01,15:20,0.734,1.056,0.738,1.347,0.984,0.429,0.758,0.719,�k,6.0,��
2019/05/01,15:30,0.737,1.058,0.739,1.350,0.983,0.430,0.758,0.719,�k,5.6,��
2019/05/01,15:40,0.736,1.060,0.740,1.348,0.984,0.430,0.759,0.719,�k,5.7,��
2019/05/01,15:50,0.737,1.060,0.739,1.350,0.985,0.429,0.760,0.719,�k,4.5,��
2019/05/01,16:00,0.735,1.059,0.739,1.348,0.986,0.430,0.758,0.718,�k�k��,4.6,��
2019/05/01,16:10,0.738,1.058,0.741,1.349,0.984,0.431,0.759,0.719,�k,5.0,��
2019/05/01,16:20,0.736,1.060,0.742,1.354,0.989,0.431,0.758,0.718,�k,4.2,�L
2019/05/01,16:30,0.739,1.061,0.743,1.351,0.987,0.430,0.758,0.718,�k,3.9,�L
2019/05/01,16:40,0.739,1.063,0.741,1.352,0.987,0.433,0.757,0.721,�k,3.3,�L
2019/05/01,16:50,0.739,1.064,0.745,1.351,0.989,0.433,0.759,0.721,�k,3.4,�L
2019/05/01,17:00,0.740,1.064,0.744,1.352,0.992,0.435,0.757,0.720,�k,3.7,�L
2019/05/01,17:10,0.740,1.063,0.746,1.349,0.989,0.434,0.759,0.720,�k,2.6,�L
2019/05/01,17:20,0.741,1.059,0.745,1.348,0.985,0.434,0.758,0.720,�k�k��,1.9,�L
2019/05/01,17:30,0.737,1.058,0.743,1.349,0.985,0.436,0.757,0.719,�k,2.3,�L
2019/05/01,17:40,0.739,1.057,0.743,1.347,0.982,0.436,0.756,0.717,�k,2.9,�L
2019/05/01,17:50,0.737,1.058,0.743,1.348,0.981,0.433,0.756,0.718,�k�k��,1.2,�L
2019/05/01,18:00,0.737,1.057,0.740,1.346,0.979,0.432,0.757,0.718,�k�k��,1.2,�L
2019/05/01,18:10,0.737,1.056,0.741,1.344,0.980,0.433,0.756,0.716,�k��,1.2,�L
2019/05/01,18:20,0.736,1.056,0.739,1.348,0.982,0.432,0.755,0.718,���k��,2.2,�L
2019/05/01,18:30,0.737,1.055,0.739,1.344,0.982,0.432,0.756,0.717,���쐼,1.7,�L
2019/05/01,18:40,0.736,1.054,0.741,1.346,0.980,0.433,0.757,0.718,��,2.3,�L
2019/05/01,18:50,0.736,1.055,0.740,1.346,0.979,0.433,0.757,0.719,��,2.3,�L
2019/05/01,19:00,0.735,1.053,0.740,1.345,0.982,0.433,0.756,0.719,��,2.9,�L
2019/05/01,19:10,0.736,1.057,0.739,1.344,0.979,0.436,0.757,0.718,��,3.7,�L
2019/05/01,19:20,0.737,1.055,0.738,1.345,0.981,0.433,0.756,0.719,��,3.9,�L
2019/05/01,19:30,0.735,1.054,0.738,1.342,0.981,0.432,0.756,0.718,���k��,3.1,�L
2019/05/01,19:40,0.735,1.051,0.738,1.343,0.978,0.433,0.756,0.716,���k��,3.5,��
2019/05/01,19:50,0.734,1.053,0.738,1.342,0.978,0.433,0.757,0.717,���k��,4.9,��
2019/05/01,20:00,0.734,1.054,0.739,1.344,0.978,0.432,0.759,0.718,�k��,5.4,��
2019/05/01,20:10,0.734,1.053,0.737,1.343,0.979,0.433,0.756,0.718,���k��,5.9,��
2019/05/01,20:20,0.734,1.053,0.739,1.345,0.980,0.431,0.756,0.718,���k��,5.8,�L
2019/05/01,20:30,0.734,1.056,0.739,1.344,0.980,0.434,0.757,0.719,���k��,3.8,�L
2019/05/01,20:40,0.734,1.055,0.741,1.344,0.980,0.433,0.757,0.719,���k��,3.1,�L
2019/05/01,20:50,0.735,1.051,0.739,1.340,0.979,0.433,0.756,0.718,�k��,4.9,�L
2019/05/01,21:00,0.735,1.053,0.740,1.343,0.979,0.432,0.756,0.720,�k��,5.5,�L
2019/05/01,21:10,0.734,1.054,0.738,1.345,0.979,0.433,0.756,0.719,�k��,5.2,�L
2019/05/01,21:20,0.735,1.053,0.740,1.344,0.981,0.432,0.756,0.720,���k��,3.5,�L
2019/05/01,21:30,0.735,1.054,0.739,1.343,0.981,0.433,0.759,0.719,���쐼,2.3,�L
2019/05/01,21:40,0.737,1.053,0.737,1.343,0.981,0.434,0.757,0.720,�k�k��,3.3,�L
2019/05/01,21:50,0.736,1.052,0.740,1.346,0.979,0.433,0.756,0.716,�k��,3.6,�L
2019/05/01,22:00,0.737,1.054,0.740,1.347,0.979,0.434,0.757,0.718,�k��,5.6,�L
2019/05/01,22:10,0.739,1.056,0.742,1.350,0.978,0.436,0.759,0.718,���k��,7.1,�L
2019/05/01,22:20,0.737,1.056,0.742,1.347,0.980,0.435,0.757,0.717,���k��,6.5,�L
2019/05/01,22:30,0.736,1.053,0.740,1.345,0.980,0.436,0.757,0.720,���k��,5.4,�L
2019/05/01,22:40,0.736,1.049,0.740,1.344,0.979,0.437,0.756,0.718,��,4.4,�L
2019/05/01,22:50,0.734,1.051,0.739,1.345,0.979,0.436,0.755,0.720,���쐼,3.5,�L
2019/05/01,23:00,0.733,1.048,0.737,1.344,0.976,0.435,0.754,0.717,���쐼,4.2,�L
2019/05/01,23:10,0.734,1.049,0.737,1.342,0.976,0.435,0.755,0.719,���쐼,4.0,�L
2019/05/01,23:20,0.733,1.045,0.737,1.344,0.975,0.435,0.755,0.715,���쐼,3.3,�L
2019/05/01,23:30,0.731,1.044,0.736,1.342,0.971,0.435,0.753,0.714,���쐼,1.5,�L
2019/05/01,23:40,0.733,1.044,0.736,1.341,0.970,0.434,0.755,0.715,���쐼,2.5,�L
2019/05/01,23:50,0.731,1.043,0.735,1.339,0.970,0.435,0.751,0.716,���쐼,2.0,�L
